DM4SB-13 Weather Reports


Display with metric or nautical units.
time (UTC)temp
F
wind
direction
speed
MPH
gust
MPH
rain 1hr
in
rain 24hr
in
rain mn
in
humidity
%
barometer
mb
20260506001018 57 0.0 0.0 0.00 0.00 0.00 72 1009.4
20260506000017 57 0.0 0.0 0.00 0.00 0.00 72 1009.5
20260505235017 57 0.0 0.0 0.00 0.00 0.00 72 1009.5
20260505234018 57 0.0 0.0 0.00 0.00 0.00 72 1009.5
20260505233017 57 0.0 0.0 0.00 0.00 0.00 72 1009.7
20260505232017 58 0.0 0.0 0.00 0.00 0.00 71 1009.7
20260505231017 58 0.0 0.0 0.00 0.00 0.00 71 1009.6
20260505230017 58 0.0 0.0 0.00 0.00 0.00 71 1009.5
20260505225017 58 0.0 0.0 0.00 0.00 0.00 71 1009.6
20260505224017 59 0.0 0.0 0.00 0.00 0.00 71 1009.7
20260505223017 59 0.0 0.0 0.00 0.00 0.00 71 1009.6
20260505222017 59 0.0 0.0 0.00 0.00 0.00 71 1009.5
20260505221018 59 0.0 0.0 0.00 0.00 0.00 71 1009.5
20260505220019 59 0.0 0.0 0.00 0.00 0.00 71 1009.5
20260505215017 59 0.0 0.0 0.00 0.00 0.00 71 1009.3
20260505214018 59 0.0 0.0 0.00 0.00 0.00 70 1009.2
20260505213017 60 0.0 0.0 0.00 0.00 0.00 70 1009.3
20260505212018 60 0.0 0.0 0.00 0.00 0.00 69 1009.3
20260505211017 60 0.0 0.0 0.00 0.00 0.00 69 1009.3
20260505210018 60 0.0 0.0 0.00 0.00 0.00 69 1009.7
20260505205017 60 0.0 0.0 0.00 0.00 0.00 69 1009.6
20260505204017 60 0.0 0.0 0.00 0.00 0.00 68 1009.6
20260505203018 60 0.0 0.0 0.00 0.00 0.00 69 1009.5
20260505201017 61 0.0 0.0 0.00 0.00 0.00 70 1009.1
20260505200017 61 0.0 0.0 0.00 0.00 0.00 70 1008.9
20260505195017 61 0.0 0.0 0.00 0.00 0.00 70 1008.7
20260505194017 61 0.0 0.0 0.00 0.00 0.00 69 1008.5
20260505193017 61 0.0 0.0 0.00 0.00 0.00 69 1008.5
20260505192018 61 0.0 0.0 0.00 0.00 0.00 69 1008.5
20260505191017 62 0.0 0.0 0.00 0.00 0.00 68 1008.6
20260505190017 62 0.0 0.0 0.00 0.00 0.00 66 1008.3
20260505185018 62 0.0 0.0 0.00 0.00 0.00 67 1008.4
20260505184017 62 0.0 0.0 0.00 0.00 0.00 67 1008.2
20260505183017 62 0.0 0.0 0.00 0.00 0.00 67 1007.9
20260505182017 62 0.0 0.0 0.00 0.00 0.00 67 1007.8
20260505181017 63 0.0 0.0 0.00 0.00 0.00 67 1007.8
20260505180018 63 0.0 0.0 0.00 0.00 0.00 66 1007.7
20260505175017 63 0.0 0.0 0.00 0.00 0.00 66 1007.7
20260505174018 63 0.0 0.0 0.00 0.00 0.00 65 1007.7
20260505173018 63 0.0 0.0 0.00 0.00 0.00 65 1007.6
20260505172017 63 0.0 0.0 0.00 0.00 0.00 65 1007.5
20260505171018 63 0.0 0.0 0.00 0.00 0.00 66 1007.5
20260505170018 63 0.0 0.0 0.00 0.00 0.00 66 1007.5
20260505165018 63 0.0 0.0 0.00 0.00 0.00 66 1007.5
20260505164017 63 0.0 0.0 0.00 0.00 0.00 66 1007.6
20260505163018 64 0.0 0.0 0.00 0.00 0.00 66 1007.4
20260505162017 63 0.0 0.0 0.00 0.00 0.00 67 1007.4
20260505161018 63 0.0 0.0 0.00 0.00 0.00 67 1007.6
20260505153017 63 0.0 0.0 0.00 0.00 0.00 67 1008.0
20260505152017 63 0.0 0.0 0.00 0.00 0.00 67 1008.0
20260505151017 63 0.0 0.0 0.00 0.00 0.00 67 1008.2
20260505125017 66 0.0 0.0 0.00 0.00 0.00 56 1007.5
20260505124018 66 0.0 0.0 0.00 0.00 0.00 54 1007.5
20260505123017 66 0.0 0.0 0.00 0.00 0.00 53 1007.5
20260505122017 65 0.0 0.0 0.00 0.00 0.00 53 1007.4
20260505121018 65 0.0 0.0 0.00 0.00 0.00 54 1007.2
20260505120017 65 0.0 0.0 0.00 0.00 0.00 54 1007.0
20260505115017 65 0.0 0.0 0.00 0.00 0.00 55 1007.1
20260505114018 65 0.0 0.0 0.00 0.00 0.00 57 1007.0
20260505113018 65 0.0 0.0 0.00 0.00 0.00 57 1006.9
20260505112017 65 0.0 0.0 0.00 0.00 0.00 59 1007.0
20260505111018 65 0.0 0.0 0.00 0.00 0.00 59 1006.9
20260505102018 64 0.0 0.0 0.00 0.00 0.00 62 1007.5
20260505101017 64 0.0 0.0 0.00 0.00 0.00 61 1007.6
20260505100017 64 0.0 0.0 0.00 0.00 0.00 61 1007.9
20260505095017 63 0.0 0.0 0.00 0.00 0.00 61 1007.9
20260505094018 63 0.0 0.0 0.00 0.00 0.00 63 1007.9
20260505093018 63 0.0 0.0 0.00 0.00 0.00 63 1008.0
20260505092018 63 0.0 0.0 0.00 0.00 0.00 65 1008.2
20260505091017 63 0.0 0.0 0.00 0.00 0.00 66 1008.3
20260505090017 63 0.0 0.0 0.00 0.00 0.00 66 1008.3
20260505085018 62 0.0 0.0 0.00 0.00 0.00 66 1008.5
20260505084017 62 0.0 0.0 0.00 0.00 0.00 67 1008.8
20260505083018 62 0.0 0.0 0.00 0.00 0.00 66 1008.9
20260505082018 62 0.0 0.0 0.00 0.00 0.00 66 1008.9
20260505081018 61 0.0 0.0 0.00 0.00 0.00 67 1009.1
20260505080018 61 0.0 0.0 0.00 0.00 0.00 67 1009.1
20260505075017 61 0.0 0.0 0.00 0.00 0.00 67 1009.0
20260505074017 60 0.0 0.0 0.00 0.00 0.00 67 1009.3
20260505073018 60 0.0 0.0 0.00 0.00 0.00 67 1009.4
20260505072017 60 0.0 0.0 0.00 0.00 0.00 68 1009.5
20260505071017 60 0.0 0.0 0.00 0.00 0.00 68 1009.6
20260505070017 59 0.0 0.0 0.00 0.00 0.00 68 1009.8
20260505065017 59 0.0 0.0 0.00 0.00 0.00 68 1009.8
20260505064017 59 0.0 0.0 0.00 0.00 0.00 68 1010.0
20260505063018 58 0.0 0.0 0.00 0.00 0.00 68 1010.3
20260505062017 58 0.0 0.0 0.00 0.00 0.00 68 1010.3
20260505061018 58 0.0 0.0 0.00 0.00 0.00 68 1010.6
20260505060017 57 0.0 0.0 0.00 0.00 0.00 68 1010.6
20260505055017 57 0.0 0.0 0.00 0.00 0.00 68 1010.6
20260505054017 57 0.0 0.0 0.00 0.00 0.00 68 1010.9
20260505053018 57 0.0 0.0 0.00 0.00 0.00 68 1010.8
20260505052017 57 0.0 0.0 0.00 0.00 0.00 68 1010.6
20260505051018 57 0.0 0.0 0.00 0.00 0.00 68 1010.8
20260505041017 57 0.0 0.0 0.00 0.00 0.00 67 1010.8
20260505040017 57 0.0 0.0 0.00 0.00 0.00 67 1010.8
20260505035017 57 0.0 0.0 0.00 0.00 0.00 67 1010.9
20260505034018 58 0.0 0.0 0.00 0.00 0.00 67 1011.1
20260505033018 58 0.0 0.0 0.00 0.00 0.00 66 1011.0
20260505032017 58 0.0 0.0 0.00 0.00 0.00 66 1011.1
20260505031017 58 0.0 0.0 0.00 0.00 0.00 66 1011.3
20260505030017 58 0.0 0.0 0.00 0.00 0.00 66 1011.4
20260505025017 59 0.0 0.0 0.00 0.00 0.00 66 1011.4
20260505024018 59 0.0 0.0 0.00 0.00 0.00 66 1011.4
20260505023018 59 0.0 0.0 0.00 0.00 0.00 66 1011.5
20260505022018 59 0.0 0.0 0.00 0.00 0.00 65 1011.6
20260505021017 59 0.0 0.0 0.00 0.00 0.00 65 1011.7
20260505020018 60 0.0 0.0 0.00 0.00 0.00 65 1012.1
20260505014018 60 0.0 0.0 0.00 0.00 0.00 65 1012.0
20260505013017 60 0.0 0.0 0.00 0.00 0.00 64 1012.2
20260505012017 60 0.0 0.0 0.00 0.00 0.00 64 1012.3
20260505011018 60 0.0 0.0 0.00 0.00 0.00 64 1012.2
20260505010018 61 0.0 0.0 0.00 0.00 0.00 64 1012.2
20260505005017 61 0.0 0.0 0.00 0.00 0.00 63 1012.3
20260505004017 61 0.0 0.0 0.00 0.00 0.00 63 1012.1
20260505003017 61 0.0 0.0 0.00 0.00 0.00 63 1012.1
20260505002017 61 0.0 0.0 0.00 0.00 0.00 63 1012.2